Regional Weather Roundup
Issued by NWS Northern Indiana

Home | Current Version | Previous Version | Graphics & Text | Print | Product List | Glossary On
Versions: 1 2 3 4 5 6 7 8 9 10 11 12 13 14 15 16 17 18 19 20 21 22 23 24 25 26 27 28 29 30 31 32 33 34 35 36 37 38 39 40 41 42 43 44 45 46 47 48 49 50
000
ASUS43 KIWX 161900
RWRIWX

KIWX WEATHER ROUNDUP
NATIONAL WEATHER SERVICE NORTHERN INDIANA
200 PM EST FRI FEB 16 2018

NOTE: "FAIR" INDICATES FEW OR NO CLOUDS BELOW 12,000 FEET WITH NO
SIGNIFICANT WEATHER AND/OR OBSTRUCTIONS TO VISIBILITY.

* THESE STATIONS ARE NOT UNDER NWS QUALITY CONTROL. THEY ALSO MAY NOT
  REPORT WEATHER SUCH AS PRECIPITATION OR FOG.

INZ001>027-162000-
NORTHERN INDIANA

CITY           SKY/WX    TMP DP  RH WIND       PRES   REMARKS
GARY*          CLOUDY    36  21  55 W10       30.25R
MICHIGAN CITY* CLOUDY    32  21  64 N6        30.24R WCI  26
KNOX*          CLOUDY    32  27  80 NW14      30.22S WCI  22
SOUTH BEND     MIX PCPN  31  23  72 NW15      30.21R WCI  20
ELKHART*         N/A     32  21  64 NW9       30.20R WCI  24
GOSHEN         CLOUDY    33  23  66 NW16      30.19R WCI  23
MONTICELLO*    CLOUDY    35  26  68 N13G21    30.23R WCI  27
ROCHESTER*     CLOUDY    36  27  69 N13       30.22R
WARSAW*        CLOUDY    32  23  69 NW13      30.20R WCI  22
AUBURN*        PTSUNNY   34  27  75 NW16G22   30.17R WCI  23
FORT WAYNE     PTSUNNY   36  26  67 NW16G23   30.17S
PERU/GRISSOM   CLOUDY    35  28  75 NW15G21   30.20R WCI  25

$$
INZ028>050-162000-
CENTRAL INDIANA

CITY           SKY/WX    TMP DP  RH WIND       PRES   REMARKS
LAFAYETTE      CLOUDY    35  26  69 N12       30.24R WCI  27
KOKOMO*        CLOUDY    34  26  72 N16       30.21R WCI  24
MUNCIE*        PTSUNNY   38  28  67 NW17      30.17R
INDIANAPOLIS   CLOUDY    37  27  67 N14G24    30.21R

$$
MIZ043>046-050>051-056>058-064>065-071>073-077>080-162000-
SOUTHWEST LOWER MICHIGAN

CITY           SKY/WX    TMP DP  RH WIND       PRES   REMARKS
BATTLE CREEK   PTSUNNY   31  16  54 NW15G26   30.16R WCI  20
BENTON HARBOR  CLOUDY    33  23  66 NW9G21    30.22R WCI  25
COLDWATER*     CLOUDY    31  20  64 NW13      30.16S WCI  21
HILLSDALE*     CLOUDY    30  21  69 NW15G22   30.13R WCI  19
HOLLAND        CLOUDY    32  22  66 NW8       30.19R WCI  25
GRAND RAPIDS   PTSUNNY   33  17  51 W14       30.16R WCI  23
KALAMAZOO      CLOUDY    32  19  58 NW16      30.17S WCI  21
STURGIS*       CLOUDY    32  21  63 NW8       30.17R WCI  25
THREE RIVERS*  CLOUDY    33  20  59 NW12      30.18S WCI  24

$$
OHZ001>008-015>018-024>025-162000-
NORTHWEST OHIO

CITY           SKY/WX    TMP DP  RH WIND       PRES   REMARKS
DEFIANCE       PTSUNNY   34  26  72 NW16      30.15R WCI  24
FINDLAY        PTSUNNY   37  26  64 NW13      30.11R
TOLEDO EXPRESS PTSUNNY   36  25  64 NW13      30.13R
TOLEDO METCALF FAIR      36  23  59 NW9       30.13R
LIMA           CLOUDY    34  27  75 NW13      30.12R WCI  25

$$
AND FOR LAKE MICHIGAN COASTAL AND OPEN LAKE BUOY OBSERVATIONS

STATION/POSITION TEMP    WIND        PRES    VSBY  WAVE
                 AIR SEA DIR/SP/G                  HT/PER
                 (F)     (DEG/KT/KT) (MB)    (MI)  (FT/S)
CALUMET HARBOR    35     270/  7/ 12 1023.1F
MICHIGAN CITY     32     300/  7/  8   N/A
BURNS HARBOR      32     320/  7/  9 1024.4S
SAINT JOSEPH      32     340/  9/ 12 1023.0

$$
&&




USA.gov is the U.S. government's official web portal to all federal, state and local government web resources and services.